This is the latest recevied weather packets stored in our database for station/object WB5CFT. If no packets are shown the sender has not sent any weather packets the latest 10 day(s).
| Time | Temp. | Humidity | Pressure | Rain* | Wind** | Luminosity | Snow |
|---|---|---|---|---|---|---|---|
| 1777674307 | 10° C | 91% | 1020.2 hPa | 4.32 mm | - | 58 W/m² | - |
| 1777674003 | 10° C | 90% | 1020.1 hPa | 3.05 mm | - | 76 W/m² | - |
| 1777673699 | 10° C | 90% | 1020 hPa | 1.78 mm | - | 77 W/m² | - |
| 1777673397 | 10° C | 90% | 1020.2 hPa | 1.78 mm | - | 54 W/m² | - |
| 1777673095 | 10° C | 89% | 1020.1 hPa | 0 mm | - | 39 W/m² | - |
| 1777672790 | 10° C | 89% | 1020 hPa | 0 mm | - | 38 W/m² | - |
| 1777672488 | 10° C | 89% | 1020.1 hPa | 0 mm | - | 44 W/m² | - |
| 1777672183 | 10° C | 90% | 1019.8 hPa | 0 mm | - | 37 W/m² | - |
| 1777671878 | 10° C | 90% | 1020 hPa | 0 mm | - | 52 W/m² | - |
| 1777671574 | 10° C | 90% | 1019.6 hPa | 0 mm | - | 50 W/m² | - |
| 1777671272 | 10° C | 91% | 1019.6 hPa | 0 mm | - | 52 W/m² | - |
| 1777670966 | 10° C | 91% | 1019.6 hPa | 0 mm | - | 62 W/m² | - |
| 1777670664 | 10° C | 91% | 1019.4 hPa | 0 mm | - | 64 W/m² | - |
| 1777670360 | 10° C | 91% | 1019.6 hPa | 0 mm | - | 64 W/m² | - |
| 1777670058 | 10° C | 91% | 1019.5 hPa | 0 mm | - | 71 W/m² | - |
| 1777669755 | 9.44° C | 91% | 1019.6 hPa | 0 mm | - | 69 W/m² | - |
| 1777669452 | 9.44° C | 91% | 1019.4 hPa | 1.78 mm | - | 69 W/m² | - |
| 1777669148 | 9.44° C | 91% | 1019.3 hPa | 1.78 mm | - | 59 W/m² | - |
| 1777668845 | 10° C | 91% | 1019.5 hPa | 0 mm | - | 54 W/m² | - |
| 1777668542 | 10° C | 91% | 1019.5 hPa | 0 mm | - | 49 W/m² | - |
| 1777668238 | 10.56° C | 91% | 1019.4 hPa | 1.27 mm | - | 57 W/m² | - |
| 1777667935 | 10.56° C | 91% | 1019.4 hPa | 1.27 mm | - | 66 W/m² | - |
| 1777667632 | 10.56° C | 91% | 1019.3 hPa | 1.78 mm | - | 95 W/m² | - |
| 1777667329 | 10.56° C | 91% | 1019 hPa | 4.83 mm | - | 128 W/m² | - |
| 1777667026 | 10.56° C | 90% | 1019.1 hPa | 7.11 mm | - | 56 W/m² | - |
* Rain latest hour (hover to see other rain measurements)
** Current wind speed in m/s (hover to see current wind gust speed)